Terminal Aerodrome Forecast
Issued by NWS Lubbock, TX

Home | Current Version | Previous Version | Text Only | Print | Product List | Glossary On
Versions: 1 2 3 4 5 6 7 8 9 10 11 12 13 14 15 16 17 18 19
000
FTUS44 KLUB 300800 AAA
TAFLBB
TAF AMD
KLBB 300828Z 3008/0106 18008KT P6SM VCTS SCT090CB
     FM300900 18009KT P6SM SCT110
     FM301800 19014G20KT P6SM SCT050=

USA.gov is the U.S. government's official web portal to all federal, state and local government web resources and services.